Temp
8 7 7 8 6 7 7 7 8 8 10 9 9 10 11 12 14 14 14 16 17 18 19 19 18 18 18 17 17 17 17 16 16 15 15 15 14 13 13 13 13 12 11 12
6 5 7 7 7 7 7 8 8 8 9 9 9 9 10 11 12 13 15 15 17 17 18 18 17 17 17 17 16 16 16 16 16 15 15 15 15 14 13 12 12 12 12 11
6 7 8 8 7 7 6 6 8 8 9 9 9 10 11 12 13 13 14 16 16 17 18 18 17 17 16 16 16 16 16 16 16 15 15 14 15 14 13 12 12 12 11 11
6 8 8 7 7 7 6 7 8 8 7 7 9 8 11 12 12 13 14 15 16 17 17 18 17 16 16 16 16 15 15 15 14 14 15 14 15 14 13 12 12 11 11 11
6 5 6 6 7 7 8 8 8 8 7 6 8 7 8 12 12 13 12 14 16 17 17 18 17 16 16 15 15 14 14 14 14 14 14 14 14 13 12 12 11 11 11 10
6 7 7 7 8 8 8 7 7 8 7 7 8 8 10 11 12 12 12 14 16 17 17 17 16 15 15 14 13 13 13 13 13 13 13 13 13 12 12 12 11 11 10 9
5 6 6 7 7 8 8 7 7 7 7 7 8 8 10 11 11 13 14 15 17 16 15 16 15 14 14 14 13 13 13 13 13 12 12 12 12 13 12 11 11 10 9 8
5 5 5 6 7 7 6 7 7 7 5 6 9 9 11 11 13 14 15 15 15 14 14 15 15 14 14 14 13 13 12 13 12 12 12 12 12 12 11 11 10 9 8 8
5 5 5 6 7 7 6 6 7 7 7 7 8 9 11 11 11 11 13 14 14 12 12 14 14 13 13 13 13 12 12 12 12 12 11 11 11 11 10 10 9 8 8 7
6 4 6 6 7 6 6 7 6 6 6 6 7 9 11 11 12 13 10 11 11 11 10 12 12 13 12 12 12 11 12 12 12 11 11 11 10 9 9 9 8 7 7 6
6 5 5 5 5 6 6 6 6 7 6 6 8 9 9 12 13 12 10 11 11 10 10 10 11 12 12 12 11 11 11 11 11 10 10 10 9 9 8 8 7 7 6 5
6 5 5 6 7 8 8 7 7 6 5 7 6 9 11 10 11 11 9 9 9 8 8 9 11 12 11 11 11 11 10 10 10 10 9 9 8 8 7 7 6 6 5 5
6 5 5 6 6 6 5 7 8 7 7 7 8 10 12 12 11 11 10 9 8 7 7 9 11 11 11 10 10 10 10 9 9 9 9 8 8 7 7 6 5 5 4 4
7 5 6 7 7 6 5 6 6 7 6 8 9 10 12 11 10 10 9 8 7 7 8 10 10 10 10 10 10 9 9 9 9 8 8 7 7 6 6 5 4 4 3 3
5 5 5 5 6 5 6 7 7 6 7 8 10 10 9 10 10 10 9 7 7 8 8 10 10 10 10 9 9 9 8 8 8 8 7 7 6 5 4 4 4 3 3 2
5 5 5 6 7 6 7 6 7 7 9 9 10 8 10 11 10 9 8 8 8 7 9 10 10 10 10 9 9 8 8 7 7 7 6 6 5 4 4 3 3 3 2 1
5 5 6 8 8 7 8 9 8 9 9 10 8 10 10 10 10 10 9 9 9 9 10 10 11 11 10 9 9 8 7 7 6 6 5 5 4 3 3 3 2 2 1 0
6 6 7 8 8 10 10 10 11 10 11 9 9 8 9 9 10 9 10 10 10 10 10 10 11 10 10 9 8 8 7 6 6 5 4 4 3 3 2 2 1 1 0 0
8 8 8 9 8 11 11 9 9 9 9 9 8 9 9 9 8 9 10 11 12 11 11 11 11 11 10 9 8 7 6 6 5 4 3 3 2 2 2 1 0 0 -0 -0
7 7 8 8 8 10 12 10 10 10 10 10 10 9 10 8 10 10 11 11 12 11 11 12 11 10 10 8 8 7 6 5 4 3 3 2 2 1 1 0 -0 -0 -1 -1
7 8 9 8 9 7 10 11 11 9 11 10 10 10 10 9 8 9 10 10 11 11 11 10 10 10 9 8 7 6 5 4 3 3 2 2 1 1 0 -0 -1 -1 -1 -2
9 9 9 9 8 7 9 11 12 10 9 9 9 9 8 6 6 7 8 9 9 10 10 10 10 9 8 7 6 5 4 3 2 2 1 1 0 0 -0 -1 -1 -2 -2 -2
8 8 8 8 8 8 10 10 10 10 9 8 7 8 10 7 6 7 7 8 8 9 9 8 9 8 6 5 5 5 3 2 2 1 0 0 -0 -0 -1 -1 -2 -2 -3 -4
7 7 8 9 9 8 10 10 11 11 10 8 7 8 10 8 7 7 7 7 8 8 8 8 7 6 4 4 3 3 2 1 1 0 -0 -0 -1 -1 -2 -2 -2 -3 -4 -4
7 7 8 7 8 8 9 10 10 10 9 8 7 7 8 8 7 7 7 7 7 7 6 6 6 5 4 2 2 1 1 0 0 -0 -0 -1 -1 -2 -2 -3 -3 -4 -5 -6
6 8 8 9 9 10 10 10 10 10 9 8 8 6 7 8 8 7 7 6 6 6 5 5 4 4 2 1 1 1 -0 -0 -0 -1 -1 -1 -2 -2 -3 -3 -3 -5 -5 -6
Height
1477 1479 1476 1477 1481 1481 1483 1482 1480 1479 1471 1472 1467 1459 1455 1453 1450 1447 1444 1444 1443 1444 1447 1447 1448 1451 1454 1457 1458 1460 1462 1466 1468 1471 1476 1481 1483 1488 1490 1492 1493 1495 1496 1498
1479 1475 1473 1474 1478 1480 1481 1481 1478 1477 1473 1471 1465 1451 1449 1447 1442 1439 1437 1435 1436 1437 1441 1442 1444 1447 1450 1452 1454 1457 1460 1463 1465 1469 1474 1478 1482 1485 1488 1490 1492 1493 1495 1497
1473 1466 1465 1471 1474 1478 1479 1481 1479 1477 1474 1469 1466 1437 1436 1431 1430 1428 1424 1425 1427 1429 1434 1437 1439 1443 1446 1448 1449 1452 1455 1459 1463 1467 1472 1476 1479 1483 1487 1489 1490 1492 1494 1495
1467 1464 1465 1468 1470 1474 1474 1472 1474 1475 1477 1475 1460 1443 1426 1423 1419 1415 1415 1417 1418 1422 1426 1430 1433 1438 1441 1445 1446 1449 1453 1456 1461 1465 1469 1474 1478 1481 1484 1486 1489 1491 1493 1493
1461 1462 1461 1463 1462 1468 1467 1467 1469 1469 1471 1472 1461 1465 1426 1418 1416 1411 1411 1411 1411 1415 1418 1423 1428 1433 1438 1441 1444 1448 1452 1455 1461 1465 1469 1472 1476 1479 1482 1485 1488 1490 1491 1491
1455 1456 1457 1456 1457 1463 1463 1467 1468 1466 1467 1459 1453 1457 1411 1414 1410 1406 1405 1403 1405 1408 1413 1418 1423 1429 1434 1439 1444 1447 1451 1455 1460 1464 1468 1471 1473 1477 1480 1483 1485 1488 1489 1490
1455 1452 1454 1454 1456 1457 1463 1465 1463 1463 1460 1447 1440 1440 1414 1400 1399 1396 1395 1394 1396 1399 1404 1410 1419 1425 1431 1435 1441 1446 1450 1453 1458 1462 1466 1470 1473 1477 1481 1482 1484 1486 1487 1488
1449 1449 1445 1448 1446 1449 1453 1454 1454 1454 1459 1450 1431 1417 1396 1387 1385 1386 1385 1388 1390 1393 1396 1402 1411 1419 1425 1431 1438 1443 1447 1451 1455 1460 1465 1469 1474 1477 1480 1481 1482 1484 1485 1485
1446 1444 1437 1439 1437 1442 1448 1449 1442 1446 1444 1440 1424 1403 1387 1383 1379 1378 1378 1380 1381 1386 1392 1397 1405 1414 1421 1428 1435 1441 1445 1450 1454 1459 1464 1469 1472 1476 1479 1480 1481 1482 1483 1483
1437 1445 1433 1433 1437 1440 1441 1439 1444 1445 1445 1447 1421 1407 1389 1378 1374 1369 1372 1371 1375 1381 1390 1394 1401 1408 1419 1426 1434 1441 1446 1450 1453 1458 1464 1468 1471 1474 1477 1479 1480 1480 1481 1480
1434 1439 1437 1435 1431 1430 1436 1437 1436 1433 1437 1434 1419 1402 1380 1373 1367 1366 1363 1365 1367 1375 1384 1389 1398 1408 1417 1425 1433 1439 1445 1449 1453 1457 1462 1466 1470 1473 1475 1477 1478 1478 1478 1477
1433 1434 1430 1421 1420 1420 1419 1420 1427 1426 1433 1426 1426 1396 1369 1374 1366 1362 1363 1363 1369 1377 1385 1389 1397 1406 1416 1423 1432 1438 1444 1448 1453 1457 1461 1465 1469 1472 1474 1476 1476 1476 1475 1475
1425 1425 1421 1413 1418 1420 1416 1414 1415 1420 1420 1413 1416 1384 1366 1368 1362 1364 1362 1365 1371 1379 1385 1392 1399 1408 1415 1423 1431 1437 1443 1448 1452 1456 1460 1464 1468 1471 1473 1473 1474 1473 1473 1472
1418 1419 1410 1398 1395 1399 1406 1406 1413 1416 1417 1403 1395 1384 1371 1371 1376 1372 1372 1368 1374 1381 1386 1393 1400 1408 1416 1424 1430 1436 1442 1447 1451 1455 1459 1463 1467 1469 1470 1471 1471 1471 1470 1469
1418 1410 1404 1396 1392 1393 1391 1391 1398 1405 1397 1400 1386 1384 1384 1377 1381 1379 1381 1375 1376 1382 1388 1392 1399 1408 1416 1423 1430 1436 1441 1446 1451 1455 1459 1462 1465 1467 1468 1469 1469 1468 1468 1466
1413 1406 1400 1387 1371 1372 1380 1388 1389 1393 1393 1390 1383 1384 1382 1382 1383 1378 1378 1379 1377 1381 1387 1393 1401 1408 1415 1422 1428 1435 1440 1446 1451 1454 1458 1461 1463 1465 1466 1467 1467 1466 1464 1463
1410 1405 1394 1373 1368 1373 1377 1366 1375 1379 1384 1385 1389 1377 1384 1378 1378 1379 1378 1376 1375 1380 1386 1392 1399 1407 1414 1421 1427 1434 1440 1445 1449 1453 1456 1459 1461 1463 1464 1464 1464 1463 1462 1460
1398 1398 1392 1377 1373 1368 1363 1360 1363 1371 1375 1382 1383 1381 1379 1378 1379 1377 1379 1375 1376 1380 1386 1393 1400 1407 1414 1422 1429 1435 1440 1444 1448 1451 1455 1457 1459 1461 1462 1461 1461 1460 1459 1456
1390 1389 1384 1379 1377 1363 1361 1365 1366 1370 1373 1376 1382 1379 1376 1377 1381 1381 1374 1373 1377 1381 1387 1393 1400 1407 1414 1421 1428 1434 1439 1443 1447 1450 1453 1456 1458 1459 1459 1459 1458 1457 1456 1453
1390 1389 1387 1384 1382 1371 1362 1362 1363 1372 1373 1358 1368 1372 1373 1384 1385 1370 1369 1372 1378 1383 1389 1394 1401 1408 1415 1422 1428 1434 1438 1442 1446 1449 1452 1454 1456 1456 1457 1456 1456 1454 1452 1449
1387 1385 1385 1386 1382 1377 1363 1364 1367 1382 1368 1354 1358 1363 1371 1382 1368 1367 1370 1374 1379 1384 1390 1396 1403 1409 1416 1422 1428 1433 1437 1442 1446 1449 1451 1453 1454 1454 1455 1454 1453 1451 1448 1445
1377 1378 1381 1383 1387 1389 1360 1359 1363 1362 1358 1357 1358 1360 1366 1368 1367 1369 1372 1376 1381 1386 1392 1398 1403 1411 1418 1424 1429 1434 1438 1442 1445 1448 1450 1451 1452 1453 1453 1452 1450 1448 1445 1441
1381 1375 1377 1377 1376 1364 1362 1362 1361 1359 1359 1357 1355 1357 1360 1365 1370 1373 1376 1380 1385 1390 1394 1401 1407 1413 1421 1427 1432 1434 1438 1441 1444 1447 1449 1450 1451 1451 1451 1450 1447 1445 1441 1436
1372 1369 1372 1371 1363 1361 1361 1360 1359 1358 1357 1356 1357 1359 1363 1366 1373 1377 1381 1385 1390 1395 1400 1406 1411 1417 1422 1428 1432 1436 1438 1442 1445 1447 1448 1449 1450 1450 1448 1446 1444 1440 1437 1433
1368 1368 1368 1368 1362 1361 1359 1359 1360 1360 1361 1361 1364 1366 1368 1370 1378 1381 1386 1391 1396 1401 1406 1412 1415 1420 1424 1429 1433 1436 1439 1442 1445 1446 1448 1448 1448 1447 1446 1443 1440 1437 1434 1429
1361 1360 1363 1362 1356 1357 1357 1358 1361 1362 1364 1366 1367 1372 1377 1379 1381 1387 1392 1397 1402 1406 1410 1415 1419 1423 1427 1431 1434 1437 1440 1443 1445 1446 1447 1447 1446 1445 1443 1440 1438 1435 1431 1427
Wind_Speed
3 5 9 13 8 5 5 6 7 4 7 5 9 15 13 14 20 24 26 31 31 34 30 26 25 25 23 22 21 21 27 32 32 33 32 26 24 21 19 14 11 10 9 8
2 12 8 6 7 9 12 16 16 7 8 8 11 21 16 14 18 21 25 30 37 37 32 21 24 24 22 21 21 25 27 30 34 35 32 27 26 19 17 14 11 10 10 6
12 3 10 8 9 10 11 14 14 13 7 11 11 28 21 17 23 29 32 33 37 38 35 26 29 27 23 22 20 22 26 30 32 34 32 28 25 23 18 15 13 14 10 5
11 15 13 11 12 10 18 9 13 11 5 6 3 10 8 5 15 18 26 28 36 36 33 31 33 30 26 22 19 19 21 24 31 33 30 27 25 24 19 18 17 14 9 5
7 5 12 18 13 10 9 6 8 8 7 7 13 8 5 10 18 17 9 24 33 34 34 30 36 33 27 22 21 20 21 25 29 29 26 25 25 23 21 21 17 13 8 5
8 6 6 8 15 13 2 7 6 4 5 12 11 11 16 11 15 10 8 27 33 37 33 33 38 32 28 25 24 24 25 26 26 23 22 21 23 24 25 22 17 12 7 6
3 13 3 4 6 9 13 6 3 5 7 8 4 11 20 8 7 13 15 25 33 33 36 38 39 35 31 30 30 28 28 27 25 23 22 21 22 23 21 18 14 10 7 6
6 6 14 10 9 6 18 14 4 6 5 4 14 12 10 15 22 30 29 27 20 31 38 41 43 40 36 34 33 33 31 29 26 24 25 25 23 22 19 15 12 9 7 7
2 5 5 10 6 11 5 12 17 5 3 4 5 8 8 10 12 13 20 23 28 31 38 43 47 43 39 36 35 35 33 29 28 28 27 26 23 20 16 14 12 9 7 8
5 5 4 5 7 10 8 5 5 6 4 6 6 6 11 5 13 16 10 14 24 31 36 43 49 46 40 37 35 33 30 30 29 27 26 24 22 18 16 14 11 8 8 9
6 4 2 4 11 13 11 10 4 2 4 4 4 6 6 12 12 10 10 18 30 36 41 44 48 43 39 36 34 33 31 30 29 27 25 23 21 19 16 12 9 8 8 10
9 3 7 15 4 12 16 15 16 5 6 6 5 9 5 8 11 8 6 17 22 28 32 41 47 43 39 36 34 33 31 30 28 26 24 22 19 17 14 10 8 8 8 11
10 5 4 3 7 14 8 13 15 16 4 12 7 11 6 15 19 7 13 20 24 28 33 40 42 40 39 37 35 33 31 28 27 25 22 20 17 14 11 10 8 7 9 12
14 4 8 9 3 4 10 16 20 17 11 13 15 21 22 18 18 7 5 21 26 30 37 41 40 39 37 36 35 33 30 27 25 22 20 17 15 13 11 9 8 8 10 13
8 6 10 17 20 13 7 19 20 23 27 17 15 14 11 17 15 7 7 20 28 31 35 39 39 39 38 36 34 31 28 26 23 20 17 15 14 12 10 9 8 9 12 14
5 4 3 17 21 20 12 17 20 23 21 22 14 16 13 25 15 3 15 20 24 28 35 37 37 38 38 36 34 31 28 24 20 17 15 14 13 12 10 8 8 11 13 14
4 3 3 5 4 8 7 18 23 21 20 18 12 12 12 24 16 13 18 24 29 34 37 38 37 36 37 36 33 30 26 22 19 16 15 13 13 11 9 8 10 12 12 14
6 4 2 4 3 2 4 5 14 18 12 8 5 10 14 16 24 14 22 23 27 32 35 35 34 34 33 32 29 26 23 21 18 15 14 13 12 9 8 9 10 10 13 16
7 2 3 3 3 2 4 6 9 11 13 12 14 17 18 18 6 11 14 19 22 27 29 31 30 30 30 30 28 26 23 20 17 15 14 12 10 8 8 8 9 11 14 17
4 6 2 3 4 3 2 5 13 8 6 18 23 22 21 10 7 4 10 14 16 18 21 25 25 27 27 28 26 25 22 19 16 14 13 11 10 8 7 8 9 13 16 19
3 2 3 2 3 7 3 2 17 6 5 2 21 26 22 14 2 10 14 17 17 18 20 21 24 26 27 27 25 23 20 17 14 14 12 10 8 7 6 8 11 15 18 21
5 4 3 3 1 5 4 1 3 2 1 3 7 17 18 14 18 19 19 21 21 23 23 23 25 26 25 24 23 21 17 15 15 13 11 8 6 5 6 9 13 17 20 22
3 5 3 6 5 3 4 2 2 3 1 1 7 13 23 25 24 24 26 25 25 25 26 25 25 26 25 22 18 16 16 16 14 12 9 6 4 5 8 12 15 19 21 23
4 3 2 1 2 4 4 2 2 3 4 6 12 22 26 31 29 30 30 29 28 26 26 25 26 26 25 19 15 13 16 15 11 8 6 4 4 6 10 14 17 20 22 23
4 5 4 4 5 5 7 5 3 8 11 14 17 21 31 33 31 31 30 28 27 25 24 22 22 22 22 20 18 15 13 10 8 6 5 4 5 9 12 15 18 20 21 22
5 6 4 5 4 1 1 11 9 12 15 16 21 26 27 29 31 29 28 25 25 24 23 21 20 20 20 18 16 14 11 8 7 5 4 5 8 11 14 17 18 19 20 22
Wind_Direction
205 199 205 213 221 263 309 291 282 314 306 333 286 289 277 274 267 261 265 264 267 262 264 270 248 233 237 236 223 212 205 201 206 204 205 207 205 194 200 206 215 249 240 207
291 240 224 215 220 242 252 263 266 274 248 277 297 285 281 271 267 254 254 252 257 261 260 255 224 225 233 235 224 216 210 209 207 207 206 204 209 208 213 209 223 221 193 201
218 210 194 226 244 237 241 245 254 260 307 279 282 281 271 256 248 251 245 246 252 256 254 242 223 223 225 227 225 218 216 216 209 202 203 200 208 203 212 210 210 191 192 208
242 240 231 258 242 210 253 214 233 249 248 256 142 285 270 254 241 238 241 234 243 245 249 240 222 215 218 219 214 208 205 202 196 198 203 207 211 210 208 203 192 192 196 218
224 207 220 227 232 195 244 200 206 216 230 259 250 266 278 196 250 261 245 236 238 240 240 233 219 217 211 210 204 192 185 184 189 197 207 211 211 211 203 189 190 191 199 231
224 204 198 218 229 227 269 225 269 257 238 250 241 219 272 235 240 250 233 239 237 238 234 225 212 207 201 196 195 187 181 180 186 194 202 211 210 201 189 188 189 193 210 249
232 228 234 221 207 194 210 198 209 217 218 240 267 222 242 256 248 229 231 238 239 234 220 210 203 195 198 194 192 189 188 186 187 192 198 197 194 192 191 188 191 202 226 267
214 243 194 195 202 178 198 202 206 209 222 231 212 241 242 226 234 238 240 245 243 222 212 206 201 196 197 193 191 191 188 188 188 190 187 185 188 189 189 193 199 214 239 273
228 266 148 220 195 151 170 211 221 275 277 275 233 285 292 234 230 228 230 227 225 209 204 200 195 194 194 191 191 189 187 191 187 183 187 186 189 193 197 202 210 225 255 287
222 269 216 213 192 230 206 183 180 189 220 243 258 253 243 285 241 240 222 209 204 195 194 195 193 189 190 191 190 190 191 188 184 185 190 191 191 195 203 208 217 239 273 298
187 215 195 145 198 195 196 224 231 238 192 221 290 259 224 249 262 226 216 205 182 183 188 187 188 184 186 186 186 186 187 188 186 187 190 193 195 199 204 212 229 255 281 298
213 227 234 227 173 226 210 213 206 205 212 227 285 262 15 336 305 202 175 158 165 171 174 177 181 181 180 181 184 186 187 188 188 188 192 194 199 202 209 222 240 263 287 301
171 221 259 235 216 221 224 219 207 223 318 224 220 259 192 358 347 337 161 153 153 162 166 174 176 177 180 183 185 187 188 188 190 191 193 197 202 208 217 230 247 272 294 304
158 236 229 233 215 175 204 205 211 215 227 235 239 271 284 321 345 314 137 140 149 161 170 174 174 179 182 185 186 186 187 190 191 192 196 201 206 213 222 234 254 279 297 305
179 252 234 252 253 225 223 214 203 208 218 218 242 253 292 309 318 293 180 145 150 163 173 177 178 182 185 186 186 187 189 190 194 195 198 204 212 217 225 239 264 286 300 305
186 269 262 279 271 224 215 221 207 212 220 235 267 286 282 285 296 232 177 168 160 168 176 182 184 186 188 189 189 189 190 191 194 197 202 209 213 217 226 247 274 292 300 306
202 254 278 287 38 126 217 209 194 205 214 213 226 252 258 280 296 272 201 184 174 178 184 187 190 191 192 192 192 190 190 191 193 198 204 209 212 218 233 259 280 293 301 311
190 219 232 276 296 12 301 268 195 204 205 195 270 265 252 264 290 269 218 190 185 188 190 191 191 192 194 191 190 192 191 191 193 197 205 207 210 221 246 269 286 298 310 317
192 226 283 324 282 234 155 154 172 182 219 203 214 245 256 288 210 250 202 197 198 196 195 194 194 193 190 189 189 190 187 189 192 199 202 203 209 232 255 277 292 306 315 320
181 243 307 334 332 11 56 114 167 163 271 200 209 230 242 214 221 225 178 184 189 195 196 191 190 188 187 185 187 186 185 187 192 196 195 201 219 239 266 284 302 315 323 323
164 192 210 276 297 286 248 126 123 147 261 82 195 212 204 209 223 153 158 158 170 177 178 179 178 182 183 181 181 181 182 183 187 190 195 205 225 252 272 297 314 321 321 324
176 167 195 162 227 305 23 17 187 239 307 257 201 177 159 143 135 138 140 144 152 157 162 167 167 169 172 175 177 176 177 181 182 187 198 214 234 257 289 311 317 321 324 325
222 184 195 180 213 244 314 283 325 310 300 284 190 170 158 140 131 133 132 137 141 145 147 152 157 157 158 164 175 179 178 178 183 192 203 215 238 277 302 314 320 324 326 328
240 193 211 17 300 257 247 268 356 14 59 82 137 152 157 141 136 130 130 130 132 135 140 148 153 154 154 161 165 176 172 176 184 194 201 219 261 299 314 319 323 327 329 331
198 148 188 260 265 293 251 217 165 122 122 123 134 148 147 142 138 136 133 134 136 140 143 150 156 158 158 159 161 165 170 177 187 194 206 241 289 307 315 323 327 329 332 334
187 187 168 219 214 186 245 179 162 145 137 136 139 140 144 144 140 141 137 140 142 144 146 149 152 156 155 160 165 167 171 176 187 200 229 279 302 313 321 323 323 327 330 332